To NAV CANADA Home Page Login to a new session Search on AWWS site Feedback and Comments Disclaimer Vers la page française équivalente Tips FAQ What's new on the site To the Forecasts and Observations / NOTAM section To "File a Flight Plan" website Publications and other links Update of the User's profile FIC Telephone Numbers My Weather Data Folder Route Weather Data Regional Weather Data Local Weather Data To the Forecasts and Observations / NOTAM section
Request Generated 09/02/2015 at 23:43:48 UTC . Weather information available at that time is displayed.

METAR/TAF

KANGIQSUALUJJUAQ/KANGIQSUALUJJUAQ (GEORGES RIVER)/QC    

METAR CYLU 022100Z CCA 12012G18KT 10SM -RA SCT025 BKN030 OVC060 08/06 A2961 RMK SC3SC3SC2 LAST OBS/NEXT 031200Z SLP032=
METAR CYLU 022100Z 12012G18KT 10SM -RA SCT025 BKN030 OVC060 08/06 A2961 RMK SC3SC3SC2 SLP032=
METAR CYLU 022000Z 12012G17KT 8SM -RA SCT025 BKN030 OVC060 08/06 A2960 RMK SC4SC2SC2 SLP026=

CYLU - No TAF is issued for this station

Your time UTC time
Weather data provided by Environment Canada and NAV CANADA